Lone Rock, WI

11:30 PM CDT on May 20, 2018 (GMT -0500)
Tri-County Regional

Weather History for KLNR - October, 2012

Change the Weather History Date:

Monday, October 29, 2012

  Actual Average Record
Temperature  
Mean Temperature 36 °F -  
Max Temperature 51 °F 52 °F 75 °F (2004)
Min Temperature 21 °F 35 °F 21 °F (2006)
Degree Days  
Heating Degree Days 30    
Moisture  
Dew Point 22 °F    
Average Humidity 66    
Maximum Humidity 92    
Minimum Humidity 29    
Precipitation  
Precipitation 0.00 in - - ()
Sea Level Pressure  
Sea Level Pressure 30.31 in    
Wind  
Wind Speed 2 mph (NW)    
Max Wind Speed 9 mph    
Max Gust Speed -    
Visibility 10 miles    
Events      
Averages and records for this station are not official NWS values.
T = Trace of Precipitation, MM = Missing Value Source: NWS Daily Summary

Daily Weather History Graph

Daily Weather History Graph

Search for Another Location

Airport or City:

Astronomy

Oct. 29, 2012 Rise Set
Actual Time 7:32 AM CDT 5:55 PM CDT
Civil Twilight 7:02 AM CDT 6:25 PM CDT
Nautical Twilight 6:29 AM CDT 6:58 PM CDT
Astronomical Twilight 5:56 AM CDT 7:31 PM CDT
Moon 5:46 PM CDT (10/29) 7:23 AM CDT (10/29)
Length of Visible Light 11h 22m
Length of Day
10h 23m
Full, 100% of the Moon is Illuminated
Oct 29
Full
Oct 29
Full
Nov 6
Last Quarter
Nov 13
New
Nov 20
First Quarter

Hourly Weather History & Observations

Time (CDT) Temp. Windchill Dew Point Humidity Pressure Visibility Wind Dir Wind Speed Gust Speed Precip Events Conditions
12:56 AM 25.0 °F - 21.9 °F 88% 30.35 in 10.0 mi Calm Calm - N/A   Clear
1:56 AM 24.1 °F - 21.0 °F 88% 30.35 in 10.0 mi Calm Calm - N/A   Clear
2:56 AM 24.1 °F - 21.0 °F 88% 30.36 in 10.0 mi Calm Calm - N/A   Clear
3:56 AM 24.1 °F - 21.0 °F 88% 30.36 in 10.0 mi Calm Calm - N/A   Clear
4:56 AM 23.0 °F - 21.0 °F 92% 30.36 in 10.0 mi Calm Calm - N/A   Clear
5:56 AM 21.0 °F - 19.0 °F 92% 30.37 in 10.0 mi Calm Calm - N/A   Clear
7:56 AM 21.0 °F - 17.1 °F 85% 30.40 in 9.0 mi Calm Calm - N/A   Clear
8:56 AM 26.1 °F - 23.0 °F 88% 30.40 in 8.0 mi Calm Calm - N/A   Clear
9:56 AM 30.9 °F 27.5 °F 26.1 °F 82% 30.39 in 10.0 mi SW 3.5 mph - N/A   Clear
10:56 AM 37.0 °F 34.5 °F 28.9 °F 73% 30.38 in 10.0 mi SSW 3.5 mph - N/A   Clear
11:56 AM 44.1 °F - 28.0 °F 53% 30.36 in 10.0 mi Calm Calm - N/A   Clear
12:56 PM 48.0 °F - 25.0 °F 41% 30.33 in 10.0 mi Variable 3.5 mph - N/A   Clear
1:56 PM 50.0 °F - 19.9 °F 31% 30.31 in 10.0 mi North 9.2 mph - N/A   Clear
2:56 PM 48.9 °F - 19.9 °F 32% 30.29 in 10.0 mi Calm Calm - N/A   Clear
3:56 PM 50.0 °F - 19.9 °F 31% 30.27 in 10.0 mi NW 9.2 mph - N/A   Clear
4:56 PM 50.0 °F - 19.0 °F 29% 30.26 in 10.0 mi NNW 8.1 mph - N/A   Clear
5:56 PM 45.0 °F 41.8 °F 19.9 °F 37% 30.25 in 10.0 mi NNW 5.8 mph - N/A   Clear
6:56 PM 37.9 °F 33.5 °F 21.9 °F 53% 30.25 in 10.0 mi North 5.8 mph - N/A   Clear
7:56 PM 33.1 °F - 24.1 °F 70% 30.25 in 10.0 mi Calm Calm - N/A   Clear
8:56 PM 30.9 °F - 24.1 °F 76% 30.23 in 10.0 mi Calm Calm - N/A   Clear
9:56 PM 37.9 °F 32.7 °F 21.9 °F 53% 30.22 in 10.0 mi North 6.9 mph - N/A   Clear
10:56 PM 30.9 °F 27.5 °F 25.0 °F 79% 30.21 in 10.0 mi WSW 3.5 mph - N/A   Clear
11:56 PM 32.0 °F 28.7 °F 24.1 °F 73% 30.19 in 10.0 mi NW 3.5 mph - N/A   Clear